TimeEST,TemperatureF,Dew PointF,Humidity,Sea Level PressureIn,VisibilityMPH,Wind Direction,Wind SpeedMPH,Gust SpeedMPH,PrecipitationIn,Events,Conditions,WindDirDegrees,DateUTC
12:12 AM,32.0,28.4,87,29.93,10.0,North,6.9,-,N/A,,Overcast,350,2013-03-01 05:12:00
12:32 AM,32.0,28.4,87,29.93,10.0,North,10.4,-,N/A,,Overcast,360,2013-03-01 05:32:00
12:53 AM,32.0,26.6,80,29.94,10.0,North,9.2,-,N/A,,Overcast,360,2013-03-01 05:53:00
1:13 AM,32.0,26.6,80,29.94,10.0,North,10.4,-,N/A,,Overcast,350,2013-03-01 06:13:00
1:33 AM,32.0,26.6,80,29.94,10.0,North,10.4,-,N/A,,Overcast,360,2013-03-01 06:33:00
2:14 AM,32.0,26.6,80,29.94,10.0,NNW,8.1,-,N/A,,Overcast,340,2013-03-01 07:14:00
2:34 AM,32.0,26.6,80,29.94,10.0,North,9.2,-,N/A,,Overcast,350,2013-03-01 07:34:00
3:34 AM,30.2,26.6,86,29.94,10.0,North,9.2,-,N/A,,Overcast,350,2013-03-01 08:34:00
3:54 AM,30.2,26.6,86,29.94,10.0,North,9.2,17.3,N/A,,Overcast,350,2013-03-01 08:54:00
4:34 AM,30.2,26.6,86,29.94,10.0,North,10.4,-,N/A,,Overcast,350,2013-03-01 09:34:00
4:55 AM,30.2,26.6,86,29.95,10.0,North,8.1,-,N/A,,Overcast,360,2013-03-01 09:55:00
5:15 AM,30.2,24.8,80,29.95,10.0,North,11.5,-,N/A,,Overcast,360,2013-03-01 10:15:00
5:35 AM,30.2,24.8,80,29.96,10.0,North,11.5,18.4,N/A,,Overcast,10,2013-03-01 10:35:00
5:55 AM,30.2,24.8,80,29.96,10.0,North,9.2,18.4,N/A,,Overcast,10,2013-03-01 10:55:00
6:15 AM,30.2,24.8,80,29.97,10.0,North,8.1,-,N/A,,Overcast,10,2013-03-01 11:15:00
6:35 AM,30.2,24.8,80,29.97,10.0,North,9.2,16.1,N/A,,Overcast,10,2013-03-01 11:35:00
7:15 AM,30.2,24.8,80,29.98,10.0,North,8.1,16.1,N/A,,Overcast,10,2013-03-01 12:15:00
7:35 AM,30.2,24.8,80,29.99,10.0,North,12.7,21.9,N/A,,Overcast,360,2013-03-01 12:35:00
7:55 AM,30.2,23.0,75,30.00,10.0,North,9.2,-,N/A,,Overcast,360,2013-03-01 12:55:00
8:16 AM,30.2,24.8,80,30.01,10.0,North,13.8,17.3,N/A,,Overcast,350,2013-03-01 13:16:00
8:31 AM,30.2,23.0,75,30.01,10.0,NNW,8.1,-,N/A,,Overcast,340,2013-03-01 13:31:00
9:11 AM,28.4,23.0,80,30.02,10.0,North,11.5,-,N/A,,Overcast,360,2013-03-01 14:11:00
9:31 AM,28.4,23.0,80,30.02,10.0,NNW,10.4,-,N/A,,Overcast,330,2013-03-01 14:31:00
9:51 AM,28.4,24.8,86,30.02,7.0,North,12.7,-,N/A,,Overcast,350,2013-03-01 14:51:00
10:11 AM,28.4,23.0,80,30.03,10.0,NNW,12.7,16.1,N/A,,Overcast,330,2013-03-01 15:11:00
10:31 AM,28.4,23.0,80,30.03,10.0,North,9.2,-,N/A,,Overcast,350,2013-03-01 15:31:00
11:12 AM,28.4,24.8,86,30.04,10.0,North,10.4,-,N/A,,Overcast,350,2013-03-01 16:12:00
11:32 AM,28.4,24.8,86,30.04,10.0,North,5.8,-,N/A,,Overcast,350,2013-03-01 16:32:00
11:52 AM,28.4,24.8,86,30.04,10.0,North,10.4,-,N/A,,Overcast,360,2013-03-01 16:52:00
12:12 PM,28.4,23.0,80,30.04,10.0,North,10.4,-,N/A,,Overcast,350,2013-03-01 17:12:00
12:32 PM,28.4,21.2,74,30.04,10.0,NNW,11.5,17.3,N/A,,Overcast,340,2013-03-01 17:32:00
1:12 PM,28.4,23.0,80,30.03,10.0,NNW,11.5,-,N/A,,Overcast,340,2013-03-01 18:12:00
1:32 PM,28.4,21.2,74,30.03,10.0,NNW,10.4,-,N/A,,Overcast,340,2013-03-01 18:32:00
1:53 PM,28.4,21.2,74,30.03,10.0,North,10.4,-,N/A,,Overcast,350,2013-03-01 18:53:00
2:13 PM,28.4,21.2,74,30.03,10.0,NNW,9.2,-,N/A,,Overcast,340,2013-03-01 19:13:00
2:33 PM,28.4,21.2,74,30.02,10.0,NNW,9.2,-,N/A,,Overcast,340,2013-03-01 19:33:00
2:53 PM,28.4,21.2,74,30.02,10.0,NNW,9.2,-,N/A,,Overcast,340,2013-03-01 19:53:00
3:13 PM,28.4,21.2,74,30.03,10.0,NNW,11.5,-,N/A,,Overcast,340,2013-03-01 20:13:00
3:33 PM,28.4,21.2,74,30.02,10.0,NNW,9.2,-,N/A,,Overcast,340,2013-03-01 20:33:00
3:53 PM,28.4,21.2,74,30.02,10.0,NNW,11.5,-,N/A,,Overcast,340,2013-03-01 20:53:00
4:13 PM,28.4,23.0,80,30.03,7.0,North,10.4,-,N/A,,Overcast,360,2013-03-01 21:13:00
4:33 PM,28.4,21.2,74,30.03,10.0,NNW,9.2,-,N/A,,Overcast,340,2013-03-01 21:33:00
5:14 PM,28.4,21.2,74,30.04,7.0,NNW,11.5,-,N/A,,Overcast,340,2013-03-01 22:14:00
5:34 PM,28.4,21.2,74,30.04,10.0,North,11.5,-,N/A,,Overcast,350,2013-03-01 22:34:00
5:54 PM,28.4,21.2,74,30.05,10.0,NNW,8.1,-,N/A,,Overcast,340,2013-03-01 22:54:00
6:14 PM,28.4,21.2,74,30.05,10.0,NNW,10.4,-,N/A,,Overcast,340,2013-03-01 23:14:00
6:34 PM,28.4,21.2,74,30.06,10.0,North,13.8,-,N/A,,Overcast,350,2013-03-01 23:34:00
6:54 PM,28.4,21.2,74,30.06,10.0,North,11.5,-,N/A,,Overcast,350,2013-03-01 23:54:00
7:14 PM,28.4,21.2,74,30.06,10.0,North,11.5,-,N/A,,Overcast,360,2013-03-02 00:14:00
7:34 PM,28.4,21.2,74,30.07,10.0,NNW,6.9,-,N/A,,Overcast,340,2013-03-02 00:34:00
7:54 PM,28.4,21.2,74,30.07,10.0,North,9.2,-,N/A,,Overcast,350,2013-03-02 00:54:00
8:15 PM,28.4,21.2,74,30.07,10.0,North,11.5,-,N/A,,Overcast,350,2013-03-02 01:15:00
8:35 PM,28.4,23.0,80,30.07,10.0,North,8.1,-,N/A,,Overcast,360,2013-03-02 01:35:00
8:55 PM,28.4,21.2,74,30.07,10.0,North,8.1,-,N/A,,Overcast,350,2013-03-02 01:55:00
9:15 PM,28.4,23.0,80,30.08,10.0,North,6.9,-,N/A,,Overcast,10,2013-03-02 02:15:00
9:35 PM,28.4,23.0,80,30.08,10.0,North,8.1,-,N/A,,Overcast,10,2013-03-02 02:35:00
9:55 PM,28.4,21.2,74,30.08,10.0,NNE,8.1,-,N/A,,Overcast,20,2013-03-02 02:55:00
10:15 PM,28.4,21.2,74,30.08,10.0,North,5.8,-,N/A,,Overcast,10,2013-03-02 03:15:00
10:55 PM,28.4,23.0,80,30.07,10.0,North,8.1,-,N/A,,Overcast,360,2013-03-02 03:55:00
11:16 PM,28.4,23.0,80,30.07,10.0,North,11.5,16.1,N/A,,Overcast,360,2013-03-02 04:16:00
11:36 PM,28.4,21.2,74,30.07,10.0,North,6.9,-,N/A,,Overcast,10,2013-03-02 04:36:00
11:51 PM,28.4,21.2,74,30.07,10.0,North,10.4,-,N/A,,Overcast,10,2013-03-02 04:51:00